Effective Sunday, March 17, 2024, the National Weather Service National Data Buoy Center will discontinue its Dial-A-Buoy Interactive Voice Response system. For more information, see Service Change Notice 24-06 (PDF).

Station ELFA2 - 9452634 - Elfin Cove, AK Image indicating link to RSS feed of recent meteorological observations for station ELFA2


Conditions at ELFA2 as of
(3:30 pm AKST on 03/04/2024)
0030 GMT on 03/05/2024:
     

Click on the graph icon in the table below to see a time series plot of the last five days of that observation.

5-day plot - Atmospheric Pressure Atmospheric Pressure (PRES):30.14 in
5-day plot - Air Temperature Air Temperature (ATMP): 27.0 °F
5-day plot - Water Temperature Water Temperature (WTMP): 43.2 °F
NOS Water Level Observation Network Water Level
Previous observations
TIME
(AKST)
5-day plot - Wind Direction
WDIR
 
5-day plot - Wind Speed
WSPD
kts
5-day plot - Wind Gust
GST
kts
5-day plot - Wave Height
WVHT
ft
5-day plot - Dominant Wave Period
DPD
sec
5-day plot - Average Wave Period
APD
sec
5-day plot - Mean Wave Direction
MWD
 
5-day plot - Atmospheric Pressure
PRES
in
5-day plot - Pressure Tendency
PTDY
in
5-day plot - Air Temperature
ATMP
°F
5-day plot - Water Temperature
WTMP
°F
5-day plot - Dew Point
DEWP
°F
5-day plot - Salinity
SAL
psu
5-day plot - Visibility
VIS
nmi
5-day plot - Tide (above MLLW)
TIDE
ft
2024-03-04 03:24 pm-------30.14- 26.8 43.0----
2024-03-04 03:18 pm-------30.14- 27.0 42.8----
2024-03-04 03:12 pm-------30.14- 26.8 42.8----
2024-03-04 03:06 pm-------30.14- 26.4 42.8----
2024-03-04 03:00 pm-------30.14-0.01 26.8 42.8----
2024-03-04 02:54 pm-------30.14- 26.8 42.8----
2024-03-04 02:48 pm-------30.14- 26.4 42.8----
2024-03-04 02:42 pm-------30.14- 27.0 42.8----
2024-03-04 02:36 pm-------30.14- 26.8 42.8----
2024-03-04 02:30 pm-------30.14- 27.1 42.8----
2024-03-04 02:24 pm-------30.14- 27.7 42.8----
2024-03-04 02:18 pm-------30.14- 27.5 42.8----
2024-03-04 02:12 pm-------30.14- 27.0 42.8----
2024-03-04 02:06 pm-------30.15- 26.8 42.6----
2024-03-04 02:00 pm-------30.14- 27.3 42.6----
2024-03-04 01:54 pm-------30.15- 27.3 42.6----
2024-03-04 01:48 pm-------30.14-- 42.4----
2024-03-04 01:42 pm-------30.14-- 42.4----
2024-03-04 01:36 pm-------30.14-- 42.1----
2024-03-04 01:30 pm-------30.14- 27.7 41.5----
2024-03-04 01:24 pm-------30.14- 27.5 41.5----
2024-03-04 01:18 pm-------30.14- 28.2 41.7----
2024-03-04 01:12 pm-------30.14- 27.9 41.5----
2024-03-04 01:06 pm-------30.14- 27.0 41.7----
2024-03-04 01:00 pm-------30.15+0.01 26.6 41.7----
2024-03-04 12:54 pm-------30.15- 26.6 41.9----
2024-03-04 12:48 pm-------30.15- 26.1 41.7----
2024-03-04 12:42 pm-------30.15- 25.9 41.5----
2024-03-04 12:36 pm-------30.15- 25.3 41.7----
2024-03-04 12:30 pm-------30.15- 26.1 40.8----
2024-03-04 12:24 pm-------30.15- 25.7 40.8----
2024-03-04 12:18 pm-------30.15- 25.7 41.0----
2024-03-04 12:12 pm-------30.16- 25.9 40.6----
2024-03-04 12:06 pm-------30.16- 25.3 40.8----
2024-03-04 12:00 pm-------30.16+0.02 25.5 40.8----
2024-03-04 11:54 am-------30.15- 25.0 40.6----
2024-03-04 11:48 am-------30.15- 25.5 40.6----
2024-03-04 11:42 am-------30.16- 25.0 40.6----
2024-03-04 11:36 am-------30.15- 25.2 40.8----
2024-03-04 11:30 am-------30.15- 24.8 40.8----
2024-03-04 11:24 am-------30.15- 25.2 40.8----
2024-03-04 11:18 am-------30.15- 24.8 40.8----
2024-03-04 11:12 am-------30.15- 24.6 41.0----
2024-03-04 11:06 am-------30.15- 25.0 41.0----
2024-03-04 11:00 am---------- 41.2----
2024-03-04 10:54 am---------- 41.0----
2024-03-04 10:48 am-------30.15- 24.6 41.2----
2024-03-04 10:42 am-------30.15- 24.4 41.2----
2024-03-04 10:36 am-------30.15- 24.4 41.2----
2024-03-04 10:30 am-------30.15- 24.4 41.4----
2024-03-04 10:24 am-------30.15- 24.4 41.4----
2024-03-04 10:18 am-------30.15- 24.6 41.5----
2024-03-04 10:12 am-------30.15- 24.1 41.5----
2024-03-04 10:06 am-------30.15- 24.1 41.7----
2024-03-04 10:00 am-------30.14+0.02 24.1 41.9----
2024-03-04 09:54 am-------30.14- 24.3 41.9----
2024-03-04 09:48 am-------30.14- 23.9 42.1----
2024-03-04 09:42 am-------30.14- 23.9 42.3----
2024-03-04 09:36 am-------30.14- 23.9 42.6----
2024-03-04 09:30 am-------30.14- 23.4 42.8----
2024-03-04 09:24 am-------30.14- 23.7 43.0----
2024-03-04 09:18 am-------30.14- 23.7 43.2----
2024-03-04 09:12 am-------30.14- 23.7 43.3----
2024-03-04 09:06 am-------30.14- 23.5 43.3----
2024-03-04 09:00 am-------30.14+0.02 23.4 43.3----
2024-03-04 08:54 am-------30.14- 23.2 43.3----
2024-03-04 08:48 am-------30.13- 23.2 43.2----
2024-03-04 08:42 am-------30.13- 23.0 43.3----
2024-03-04 08:36 am-------30.13- 23.2 43.3----
2024-03-04 08:30 am-------30.13- 23.0 43.5----
2024-03-04 08:24 am-------30.12- 22.8 43.5----
2024-03-04 08:18 am-------30.13- 22.8 43.5----
2024-03-04 08:12 am-------30.12- 23.2 43.5----
2024-03-04 08:06 am-------30.12- 22.6 43.5----
2024-03-04 08:00 am-------30.12+0.00 22.8 43.5----
2024-03-04 07:54 am-------30.12- 22.6 43.5----
2024-03-04 07:48 am-------30.12- 22.6 43.5----
2024-03-04 07:42 am-------30.12- 22.6 43.5----
2024-03-04 07:36 am-------30.12- 22.8 43.7----
2024-03-04 07:30 am-------30.12- 22.6 43.5----
2024-03-04 07:24 am-------30.12- 22.5 43.5----
2024-03-04 07:18 am-------30.12- 22.5 43.5----
2024-03-04 07:12 am-------30.12- 22.5 43.5----
2024-03-04 07:06 am-------30.12- 22.5 43.5----
2024-03-04 07:00 am-------30.12+0.00 22.5 43.5----
2024-03-04 06:54 am-------30.12- 22.3 43.5----
2024-03-04 06:48 am-------30.12- 22.3 43.5----
2024-03-04 06:42 am-------30.12- 22.3 43.5----
2024-03-04 06:36 am-------30.12- 22.5 43.5----
2024-03-04 06:30 am-------30.12- 22.5 43.3----
2024-03-04 06:24 am-------30.12- 22.5 43.5----
2024-03-04 06:18 am-------30.12- 22.3 43.5----
2024-03-04 06:12 am-------30.12- 22.5 43.5----
2024-03-04 06:06 am-------30.12- 22.6 43.5----
2024-03-04 06:00 am-------30.12+0.00 22.6 43.5----
2024-03-04 05:54 am-------30.12- 22.5 43.5----
2024-03-04 05:48 am-------30.12- 22.1 43.5----
2024-03-04 05:42 am-------30.12- 22.5 43.5----
2024-03-04 05:36 am-------30.11- 22.1 43.5----
2024-03-04 05:30 am-------30.11- 21.7 43.5----
2024-03-04 05:24 am-------30.11- 21.9 43.5----
2024-03-04 05:18 am-------30.11- 21.6 43.3----
2024-03-04 05:12 am-------30.11- 21.9 43.5----
2024-03-04 05:06 am-------30.11- 21.9 43.3----
2024-03-04 05:00 am-------30.12-0.01 21.6 43.3----
2024-03-04 04:54 am-------30.12- 22.1 43.3----
2024-03-04 04:48 am-------30.12- 21.9 43.3----
2024-03-04 04:42 am-------30.12- 21.9 43.3----
2024-03-04 04:36 am-------30.12- 22.1 43.3----
2024-03-04 04:30 am-------30.12- 22.3 43.3----
2024-03-04 04:24 am-------30.12- 22.3 43.3----
2024-03-04 04:18 am-------30.12- 22.5 43.3----
2024-03-04 04:12 am-------30.12- 22.8 43.3----
2024-03-04 04:06 am-------30.12- 22.3 43.3----
2024-03-04 04:00 am-------30.12-0.01 21.7 43.3----
2024-03-04 03:54 am-------30.12- 21.7 43.3----
2024-03-04 03:48 am-------30.12- 21.4 43.3----
2024-03-04 03:42 am-------30.12- 21.6 43.3----
2024-03-04 03:36 am-------30.12- 21.7 43.3----
2024-03-04 03:30 am-------30.12- 21.0 43.3----
2024-03-04 03:24 am-------30.12- 20.8 43.3----
2024-03-04 03:18 am-------30.12- 20.8 43.3----
2024-03-04 03:12 am-------30.12- 20.7 43.3----
2024-03-04 03:06 am-------30.12- 20.7 43.3----
2024-03-04 03:00 am-------30.12-0.01 20.8 43.3----
2024-03-04 02:54 am-------30.13- 20.8 43.3----
2024-03-04 02:48 am-------30.12- 20.8 43.3----
2024-03-04 02:42 am-------30.13- 21.0 43.3----
2024-03-04 02:36 am-------30.13- 20.8 43.3----
2024-03-04 02:30 am-------30.13- 21.0 43.3----
2024-03-04 02:24 am-------30.13- 20.8 43.3----
2024-03-04 02:18 am-------30.13- 20.3 43.3----
2024-03-04 02:12 am-------30.13- 20.1 43.3----
2024-03-04 02:06 am-------30.13- 20.1 43.3----
2024-03-04 02:00 am-------30.13+0.00 19.9 43.3----
2024-03-04 01:54 am-------30.13- 19.8 43.3----
2024-03-04 01:48 am-------30.13- 19.4 43.3----
2024-03-04 01:42 am-------30.13- 18.9 43.2----
2024-03-04 01:36 am-------30.13- 19.0 43.2----
2024-03-04 01:30 am-------30.13- 18.5 43.2----
2024-03-04 01:24 am-------30.13- 18.7 43.0----
2024-03-04 01:18 am-------30.13- 18.5 43.2----
2024-03-04 01:12 am-------30.13- 18.7 43.0----
2024-03-04 01:06 am-------30.13- 18.3 43.0----
2024-03-04 01:00 am-------30.14+0.00 18.3 42.8----
2024-03-04 12:54 am-------30.14- 18.5 42.8----
2024-03-04 12:48 am-------30.14- 18.3 42.8----
2024-03-04 12:42 am-------30.14- 18.3 42.8----
2024-03-04 12:36 am-------30.14- 18.5 42.8----
2024-03-04 12:30 am-------30.14- 18.5 42.8----
2024-03-04 12:24 am-------30.14- 18.5 42.8----
2024-03-04 12:18 am-------30.13- 18.7 42.6----
2024-03-04 12:12 am-------30.13- 18.3 42.8----
2024-03-04 12:06 am-------30.13- 18.3 42.6----
2024-03-04 12:00 am-------30.14+0.01 18.5 42.1----
2024-03-03 11:54 pm-------30.14- 18.5 41.9----
2024-03-03 11:48 pm-------30.14- 18.3 42.1----
2024-03-03 11:42 pm-------30.14- 18.1 42.1----
2024-03-03 11:36 pm-------30.14- 17.6 42.1----
2024-03-03 11:30 pm-------30.13- 17.2 42.1----
2024-03-03 11:24 pm-------30.13- 17.8 42.1----
2024-03-03 11:18 pm-------30.13- 18.1 42.1----
2024-03-03 11:12 pm-------30.13- 17.8 42.1----
2024-03-03 11:06 pm-------30.14- 17.4 42.3----
2024-03-03 11:00 pm-------30.14+0.01 17.2 42.1----
2024-03-03 10:54 pm-------30.13- 17.1 42.3----
2024-03-03 10:48 pm-------30.13- 16.9 42.1----
2024-03-03 10:42 pm-------30.13- 16.7 42.3----
2024-03-03 10:36 pm-------30.13- 16.7 42.4----
2024-03-03 10:30 pm-------30.13- 16.5 42.4----
2024-03-03 10:24 pm-------30.13- 16.9 42.6----
2024-03-03 10:18 pm-------30.13- 16.9 42.8----
2024-03-03 10:12 pm-------30.13- 17.1 42.8----
2024-03-03 10:06 pm-------30.14- 17.2 43.0----
2024-03-03 10:00 pm-------30.14+0.01 16.7 43.0----
2024-03-03 09:54 pm-------30.14- 17.1 43.0----
2024-03-03 09:48 pm-------30.14- 16.9 43.2----
2024-03-03 09:42 pm-------30.13- 17.2 43.2----
2024-03-03 09:36 pm-------30.13- 17.4 43.2----
2024-03-03 09:30 pm-------30.13- 17.1 43.3----
2024-03-03 09:24 pm-------30.13- 17.6 43.3----
2024-03-03 09:18 pm-------30.13- 17.8 43.3----
2024-03-03 09:12 pm-------30.13- 17.6 43.3----
2024-03-03 09:06 pm-------30.13- 17.8 43.3----
2024-03-03 09:00 pm-------30.13+0.00 18.1 43.3----
2024-03-03 08:54 pm-------30.12- 18.3 43.5----
2024-03-03 08:48 pm-------30.12- 18.1 43.5----
2024-03-03 08:42 pm-------30.12- 18.0 43.3----
2024-03-03 08:36 pm-------30.12- 18.3 43.3----
2024-03-03 08:30 pm-------30.12- 18.7 43.5----
2024-03-03 08:24 pm-------30.12- 19.4 43.5----
2024-03-03 08:18 pm-------30.12- 19.2 43.5----
2024-03-03 08:12 pm-------30.12- 18.3 43.5----
2024-03-03 08:06 pm-------30.12- 18.1 43.5----
2024-03-03 08:00 pm-------30.12+0.03 18.5 43.5----
2024-03-03 07:54 pm-------30.12- 18.5 43.3----
2024-03-03 07:48 pm-------30.12- 18.7 43.3----
2024-03-03 07:42 pm-------30.12- 19.0 43.3----
2024-03-03 07:36 pm-------30.12- 19.0 43.5----
2024-03-03 07:30 pm-------30.12- 18.9 43.5----
2024-03-03 07:24 pm-------30.12- 19.0 43.5----
2024-03-03 07:18 pm-------30.12- 19.2 43.5----
2024-03-03 07:12 pm-------30.12- 19.4 43.5----
2024-03-03 07:06 pm-------30.13- 19.2 43.5----
2024-03-03 07:00 pm-------30.13+0.01 19.8 43.5----
2024-03-03 06:54 pm-------30.12- 19.6 43.3----
2024-03-03 06:48 pm-------30.12- 20.5 43.3----
2024-03-03 06:42 pm-------30.13- 19.9 43.3----
2024-03-03 06:36 pm-------30.13- 20.5 43.3----
2024-03-03 06:30 pm-------30.13- 20.8 43.3----
2024-03-03 06:24 pm-------30.13- 21.4 43.2----
2024-03-03 06:18 pm-------30.12- 21.7 43.3----
2024-03-03 06:12 pm-------30.12- 21.7 43.2----
2024-03-03 06:06 pm-------30.12- 22.3 43.2----
2024-03-03 06:00 pm-------30.12+0.02 22.6 43.3----
2024-03-03 05:54 pm-------30.12- 22.5 43.3----
2024-03-03 05:48 pm-------30.12- 22.6 43.3----
2024-03-03 05:42 pm-------30.11- 22.8 43.3----
2024-03-03 05:36 pm-------30.11- 23.2 43.3----
2024-03-03 05:30 pm-------30.11- 23.5 43.2----
2024-03-03 05:24 pm-------30.11- 23.7 43.2----
2024-03-03 05:18 pm-------30.10- 23.9 43.3----
2024-03-03 05:12 pm-------30.10- 24.1 43.3----
2024-03-03 05:06 pm-------30.09- 24.1 43.3----
2024-03-03 05:00 pm-------30.09-0.01 24.1 43.2----
2024-03-03 04:54 pm-------30.09- 24.3 43.2----
2024-03-03 04:48 pm-------30.09- 24.4 43.2----
2024-03-03 04:42 pm-------30.09- 25.0 43.2----
2024-03-03 04:36 pm-------30.09- 25.0 43.2----
2024-03-03 04:30 pm-------30.10- 25.3 43.2----
2024-03-03 04:24 pm-------30.11- 25.3 43.2----
2024-03-03 04:18 pm-------30.11- 25.5 43.2----
2024-03-03 04:12 pm-------30.11- 25.5 43.2----
2024-03-03 04:06 pm-------30.11- 27.3 43.2----
2024-03-03 04:00 pm-------30.11+0.00 26.6 43.2----
2024-03-03 03:54 pm-------30.11- 27.0 43.2----